Station WFPM4 - Whitefish Point, MI Image indicating link to RSS feed of recent meteorological observations for station WFPM4


Conditions at WFPM4 as of
(8:40 pm EDT on 06/20/2024)
0040 GMT on 06/21/2024:
     

Click on the graph icon in the table below to see a time series plot of the last five days of that observation.

5-day plot - Wind Direction Wind Direction (WDIR):WNW ( 300 deg true )
5-day plot - Wind Speed Wind Speed (WSPD): 4.1 kts
5-day plot - Wind Gust Wind Gust (GST): 8.9 kts
5-day plot - Air Temperature Air Temperature (ATMP): 57.0 °F
5-day plot - Wind Speed at 10 Meters Wind Speed at 10 meters (WSPD10M): 3.9 kts
5-day plot - Wind Speed at 20 Meters Wind Speed at 20 meters (WSPD20M): 5.8 kts
5-day plot -  Wind Speed, Wind Gust and Atmospheric Pressure Combined plot of Wind Speed, Gust, and Air Pressure
Previous observations
TIME
(EDT)
5-day plot - Wind Direction
WDIR
 
5-day plot - Wind Speed
WSPD
kts
5-day plot - Wind Gust
GST
kts
5-day plot - Wave Height
WVHT
ft
5-day plot - Dominant Wave Period
DPD
sec
5-day plot - Average Wave Period
APD
sec
5-day plot - Mean Wave Direction
MWD
 
5-day plot - Atmospheric Pressure
PRES
in
5-day plot - Pressure Tendency
PTDY
in
5-day plot - Air Temperature
ATMP
°F
5-day plot - Water Temperature
WTMP
°F
5-day plot - Dew Point
DEWP
°F
5-day plot - Salinity
SAL
psu
5-day plot - Visibility
VIS
nmi
5-day plot - Tide (above MLLW)
TIDE
ft
2024-06-20 08:30 pm NW 7.0 8.9------ 57.0-----
2024-06-20 08:20 pm NW 6.0 9.9------ 57.0-----
2024-06-20 08:10 pm NW 6.0 12.0------ 57.0-----
2024-06-20 08:00 pm NW 7.0 11.1------ 57.2-----
2024-06-20 07:50 pm NW 7.0 11.1------ 57.0-----
2024-06-20 07:40 pm NW 7.0 12.0------ 56.8-----
2024-06-20 07:30 pm NW 6.0 11.1------ 57.0-----
2024-06-20 07:20 pm NW 7.0 12.0------ 57.2-----
2024-06-20 07:10 pm NW 6.0 9.9------ 57.7-----
2024-06-20 07:00 pm NW 8.9 13.0------ 58.1-----
2024-06-20 06:50 pm NW 8.0 11.1------ 59.5-----
2024-06-20 06:40 pmNNW 5.1 9.9------ 60.4-----
2024-06-20 06:30 pm NW 5.1 9.9------ 60.8-----
2024-06-20 06:20 pmNNW 4.1 9.9------ 61.9-----
2024-06-20 06:10 pmNNW 5.1 8.9------ 63.0-----
2024-06-20 06:00 pm NW 6.0 9.9------ 63.9-----
2024-06-20 05:50 pmNNW 8.0 9.9------ 64.4-----
2024-06-20 05:40 pmNNW 6.0 9.9------ 65.5-----
2024-06-20 05:30 pmNNW 6.0 8.9------ 66.0-----
2024-06-20 05:20 pmNNW 6.0 9.9------ 65.5-----
2024-06-20 05:10 pmNNW 6.0 11.1------ 66.7-----
2024-06-20 05:00 pmNNW 5.1 11.1------ 66.4-----
2024-06-20 04:50 pmNNW 4.1 11.1------ 66.6-----
2024-06-20 04:40 pmNNW 8.0 11.1------ 67.3-----
2024-06-20 04:30 pmNNW 5.1 9.9------ 68.7-----
2024-06-20 04:20 pmNNW 5.1 11.1------ 69.1-----
2024-06-20 04:10 pmNNW 4.1 13.0------ 68.4-----
2024-06-20 04:00 pmNNW 7.0 12.0------ 68.5-----
2024-06-20 03:50 pmNNW 8.9 12.0------ 68.5-----
2024-06-20 03:40 pmNNW 6.0 12.0------ 68.7-----
2024-06-20 03:30 pmNNW 8.0 12.0------ 69.4-----
2024-06-20 03:20 pmNNW 4.1 12.0------ 68.7-----
2024-06-20 03:10 pmNNW 6.0 11.1------ 70.2-----
2024-06-20 03:00 pmNNW 8.0 12.0------ 70.3-----
2024-06-20 02:50 pmNNW 8.0 12.0------ 68.7-----
2024-06-20 02:40 pmNNW 7.0 12.0------ 69.3-----
2024-06-20 02:30 pmNNW 6.0 11.1------ 69.8-----
2024-06-20 02:20 pmNNW 6.0 8.9------ 70.9-----
2024-06-20 02:10 pm N 7.0 9.9------ 72.0-----
2024-06-20 02:00 pmNNW 7.0 9.9------ 70.5-----
2024-06-20 01:50 pmNNW 6.0 8.9------ 70.9-----
2024-06-20 01:40 pmNNW 2.9 8.0------ 70.3-----
2024-06-20 01:30 pmNNW 4.1 8.9------ 67.5-----
2024-06-20 01:20 pmNNW 7.0 14.0------ 67.1-----
2024-06-20 01:10 pm NW 4.1 11.1------ 66.7-----
2024-06-20 01:00 pm NW 8.9 12.0------ 65.1-----
2024-06-20 12:50 pm NW 8.0 13.0------ 64.0-----
2024-06-20 12:40 pm NW 9.9 14.0------ 63.0-----
2024-06-20 12:30 pm NW 7.0 12.0------ 64.0-----
2024-06-20 12:20 pm NW 8.0 12.0------ 64.2-----
2024-06-20 12:10 pm NW 5.1 11.1------ 64.8-----
2024-06-20 12:00 pmNNW 5.1 8.9------ 67.3-----
2024-06-20 11:50 amNNW 6.0 8.0------ 65.1-----
2024-06-20 11:40 amNNW 5.1 8.9------ 65.3-----
2024-06-20 11:30 amNNW 4.1 8.9------ 63.9-----
2024-06-20 11:20 amNNW 4.1 9.9------ 64.4-----
2024-06-20 11:10 am NW 5.1 11.1------ 63.9-----
2024-06-20 11:00 amNNW 6.0 8.9------ 63.5-----
2024-06-20 10:50 amNNW 4.1 8.9------ 63.9-----
2024-06-20 10:40 amNNW 7.0 8.9------ 62.8-----
2024-06-20 10:30 amNNW 4.1 8.9------ 62.8-----
2024-06-20 10:20 amNNW 6.0 8.9------ 61.7-----
2024-06-20 10:10 amNNW 7.0 9.9------ 60.6-----
2024-06-20 10:00 amNNW 6.0 9.9------ 60.4-----
2024-06-20 09:50 amNNW 8.0 8.9------ 59.7-----
2024-06-20 09:40 amNNW 6.0 9.9------ 58.6-----
2024-06-20 09:30 amNNW 6.0 11.1------ 58.1-----
2024-06-20 09:20 amNNW 4.1 9.9------ 57.7-----
2024-06-20 09:10 am NW 6.0 9.9------ 56.3-----
2024-06-20 09:00 amNNW 6.0 8.9------ 55.9-----
2024-06-20 08:50 amNNW 5.1 11.1------ 55.9-----
2024-06-20 08:40 amNNW 6.0 8.9------ 55.6-----
2024-06-20 08:30 am NW 2.9 8.0------ 55.8-----
2024-06-20 08:20 am NW 5.1 8.0------ 55.0-----
2024-06-20 08:10 am NW 5.1 8.0------ 54.0-----
2024-06-20 08:00 am NW 2.9 6.0------ 53.6-----
2024-06-20 07:50 am NW 4.1 7.0------ 52.2-----
2024-06-20 07:40 am NW 4.1 6.0------ 50.9-----
2024-06-20 07:30 am NW 4.1 6.0------ 50.4-----
2024-06-20 07:20 am NW 4.1 7.0------ 50.0-----
2024-06-20 07:10 am NW 4.1 6.0------ 49.8-----
2024-06-20 07:00 am NW 4.1 7.0------ 49.6-----
2024-06-20 06:50 am NW 4.1 7.0------ 49.6-----
2024-06-20 06:40 amNNW 4.1 7.0------ 49.5-----
2024-06-20 06:30 amNNW 4.1 8.0------ 49.5-----
2024-06-20 06:20 am NW 5.1 9.9------ 49.6-----
2024-06-20 06:10 am NW 7.0 8.9------ 49.6-----
2024-06-20 06:00 amNNW 7.0 11.1------ 49.8-----
2024-06-20 05:50 am NW 6.0 9.9------ 50.0-----
2024-06-20 05:40 am NW 8.0 11.1------ 50.0-----
2024-06-20 05:30 am NW 6.0 9.9------ 50.2-----
2024-06-20 05:20 am NW 6.0 9.9------ 50.4-----
2024-06-20 05:10 am NW 7.0 9.9------ 50.5-----
2024-06-20 05:00 am NW 8.0 9.9------ 50.7-----
2024-06-20 04:50 am NW 6.0 11.1------ 50.9-----
2024-06-20 04:40 am NW 8.0 11.1------ 51.1-----
2024-06-20 04:30 am NW 6.0 11.1------ 51.3-----
2024-06-20 04:20 am NW 7.0 9.9------ 51.6-----
2024-06-20 04:10 am NW 6.0 11.1------ 52.0-----
2024-06-20 04:00 am NW 6.0 8.9------ 52.3-----
2024-06-20 03:50 amWNW 8.0 12.0------ 52.5-----
2024-06-20 03:40 am NW 8.0 11.1------ 52.5-----
2024-06-20 03:30 amWNW 8.9 12.0------ 52.7-----
2024-06-20 03:20 am NW 8.0 11.1------ 52.7-----
2024-06-20 03:10 am NW 8.9 12.0------ 52.7-----
2024-06-20 03:00 am NW 8.0 11.1------ 52.9-----
2024-06-20 02:50 amWNW 6.0 12.0------ 52.9-----
2024-06-20 02:40 amWNW 6.0 9.9------ 52.9-----
2024-06-20 02:30 amWNW 6.0 12.0------ 52.9-----
2024-06-20 02:20 amWNW 7.0 11.1------ 52.9-----
2024-06-20 02:10 amWNW 7.0 12.0------ 52.9-----
2024-06-20 02:00 amWNW 6.0 9.9------ 52.9-----
2024-06-20 01:50 amWNW 6.0 11.1------ 53.1-----
2024-06-20 01:40 amWNW 8.0 12.0------ 53.1-----
2024-06-20 01:30 amWNW 8.0 12.0------ 53.1-----
2024-06-20 01:20 amWNW 8.9 13.0------ 53.2-----
2024-06-20 01:10 amWNW 8.0 14.0------ 53.4-----
2024-06-20 01:00 amWNW 8.0 12.0------ 53.8-----
2024-06-20 12:50 amWNW 8.0 12.0------ 54.0-----
2024-06-20 12:40 amWNW 5.1 8.9------ 53.8-----
2024-06-20 12:30 amWNW 6.0 11.1------ 53.8-----
2024-06-20 12:20 amWNW 7.0 8.9------ 53.8-----
2024-06-20 12:10 amWNW 6.0 8.0------ 53.6-----
2024-06-20 12:00 amWNW 6.0 7.0------ 53.6-----
2024-06-19 11:50 pmWNW 5.1 7.0------ 53.8-----
2024-06-19 11:40 pmWNW 5.1 7.0------ 54.0-----
2024-06-19 11:30 pm NW 4.1 8.0------ 54.0-----
2024-06-19 11:20 pm NW 5.1 8.0------ 54.3-----
2024-06-19 11:10 pmWNW 6.0 9.9------ 54.7-----
2024-06-19 11:00 pmWNW 6.0 8.9------ 54.9-----
2024-06-19 10:50 pm NW 5.1 8.0------ 55.0-----
2024-06-19 10:40 pmWNW 5.1 8.9------ 55.4-----
2024-06-19 10:30 pmWNW 5.1 8.0------ 55.8-----
2024-06-19 10:20 pmWNW 6.0 8.0------ 56.1-----
2024-06-19 10:10 pmWNW 5.1 8.0------ 56.3-----
2024-06-19 10:00 pmWNW 5.1 8.9------ 56.3-----
2024-06-19 09:50 pmWNW 5.1 7.0------ 56.3-----
2024-06-19 09:40 pmWNW 2.9 6.0------ 56.8-----
2024-06-19 09:30 pmWNW 4.1 5.1------ 57.6-----
2024-06-19 09:20 pmWNW 2.9 5.1------ 58.3-----
2024-06-19 09:10 pmWNW 4.1 7.0------ 59.2-----
2024-06-19 09:00 pm NW 4.1 8.0------ 60.3-----
2024-06-19 08:50 pm NW 4.1 8.0------ 61.7-----